Theta_e
318 313 310 313 318 319 316 314 313 319 323 323 321 322 326 331 332 334 337 338 337 337 341 343 344 345 346 347 350 355 358 366 360 354 352 352 348 351 349 350 361 362 364 367
314 310 315 317 316 318 316 314 314 319 322 323 320 320 325 327 330 332 335 337 339 339 339 341 343 344 345 347 353 359 361 367 364 357 359 353 354 349 349 351 364 364 365 368
310 313 316 314 312 313 316 312 313 314 319 322 318 317 320 325 327 332 334 339 340 340 339 339 341 343 344 347 353 357 363 366 366 365 361 360 357 355 349 351 355 361 365 366
311 314 311 311 309 311 307 314 314 313 314 310 318 307 317 321 322 327 332 336 338 341 341 340 339 341 343 346 350 359 366 368 367 369 360 361 349 345 347 350 353 359 366 365
309 310 309 308 310 312 309 314 313 313 311 312 313 310 315 321 320 323 329 333 336 340 342 341 339 341 344 345 347 355 366 368 369 369 366 357 356 347 349 350 364 366 372 370
313 316 313 311 312 312 314 311 312 312 310 303 310 311 312 316 321 324 328 331 335 339 341 343 343 341 343 345 346 350 363 369 372 372 368 368 362 357 346 352 352 355 357 360
309 311 313 314 310 312 310 307 301 300 301 301 311 309 312 319 322 324 327 330 334 338 340 342 342 340 342 344 346 350 362 367 371 371 369 366 368 366 363 364 355 360 353 353
303 301 310 312 310 308 308 307 301 296 298 302 310 305 310 319 323 325 328 330 333 337 340 341 344 342 343 347 351 354 361 366 370 370 371 372 370 360 358 361 357 355 354 355
304 304 313 312 313 312 308 305 310 305 307 303 306 311 316 319 320 322 323 328 330 335 338 341 343 345 344 348 354 357 361 366 370 369 371 372 371 369 361 364 368 358 368 356
309 305 311 312 313 313 311 313 303 305 300 299 304 307 308 314 317 321 322 324 329 334 338 340 342 345 348 347 353 358 361 367 368 369 370 370 371 372 369 368 369 367 367 371
311 309 309 313 308 307 308 308 308 307 305 300 300 305 315 316 319 319 321 324 327 331 336 339 340 345 350 350 349 355 360 363 367 369 370 371 370 371 372 368 370 370 375 375
311 309 305 308 312 314 312 309 310 304 303 305 305 306 316 317 318 320 321 324 327 330 332 336 340 344 346 349 349 351 354 357 365 367 369 369 371 371 370 371 370 374 372 376
310 306 302 306 310 312 309 311 311 310 309 306 302 306 319 318 319 320 321 323 327 330 332 334 336 342 345 347 354 354 356 354 357 364 365 368 369 370 369 370 373 373 374 374
307 306 306 303 308 310 306 308 310 309 306 306 307 309 313 316 317 319 322 324 326 329 332 334 336 340 345 349 355 357 354 353 356 359 362 365 368 370 369 371 373 373 374 374
306 303 307 309 310 310 309 308 309 307 309 306 309 310 314 316 317 320 322 324 324 325 327 331 333 336 340 347 354 359 356 359 356 361 362 364 369 372 372 372 371 374 374 374
306 301 306 306 309 308 305 309 309 309 309 310 310 311 319 320 320 319 320 321 321 324 327 329 333 336 339 341 347 355 361 358 362 362 362 367 369 372 372 372 372 373 373 373
300 301 303 300 307 306 302 307 309 310 312 311 307 313 318 318 319 319 320 322 322 324 326 327 329 333 339 339 349 352 359 363 362 360 366 367 369 370 372 373 373 373 372 373
298 300 301 298 303 295 307 314 312 310 312 313 314 316 318 319 321 322 324 324 324 325 326 328 328 331 335 338 342 351 351 364 363 364 362 367 368 369 372 373 372 373 373 372
301 298 297 295 299 304 307 309 310 309 309 314 314 315 317 318 319 320 323 324 325 326 328 329 329 330 333 333 340 346 352 356 361 362 363 365 368 369 370 370 371 372 372 372
300 300 296 297 294 295 306 311 312 314 305 315 316 316 317 318 312 316 326 329 333 332 334 333 331 331 331 334 333 337 347 358 360 361 364 367 370 370 369 371 372 373 373 371
293 295 292 294 294 300 308 311 315 301 310 322 322 323 323 321 325 332 333 334 336 336 336 338 338 336 339 341 342 347 347 355 359 361 365 369 370 371 372 373 373 373 372 367
294 292 292 294 293 292 309 307 304 313 317 314 318 321 323 324 325 327 330 332 335 339 340 339 337 338 341 344 351 354 357 360 369 367 366 368 370 367 365 374 374 373 372 369
292 298 296 297 297 306 308 308 311 312 311 314 316 317 319 321 322 324 327 330 335 341 343 343 340 344 350 350 357 357 361 371 369 370 369 370 372 371 370 371 372 366 369 361
298 302 297 297 302 304 306 309 311 311 311 313 314 319 320 321 323 325 327 331 336 343 345 346 343 342 349 355 356 363 366 375 371 370 369 370 370 370 371 365 364 361 359 359
297 299 297 298 301 302 305 307 309 310 312 312 314 316 315 316 318 323 326 331 338 346 347 346 349 348 347 353 357 357 362 367 364 364 362 367 363 365 366 360 343 359 362 343
299 297 294 294 302 303 304 308 309 309 309 311 313 312 314 315 316 321 326 331 340 345 350 349 351 353 356 358 360 363 363 363 364 360 358 355 355 360 359 355 342 305 305 302
Wind_Speed
23 20 26 29 27 22 22 22 22 20 12 20 17 14 20 18 19 21 22 21 22 23 23 22 22 22 21 20 19 18 16 13 10 11 11 10 10 9 8 8 9 9 7 9
20 28 26 25 26 28 27 22 22 14 19 19 18 18 19 19 20 18 21 22 22 21 22 22 23 23 22 21 20 17 16 14 13 11 9 9 8 9 9 9 8 9 9 9
29 19 28 26 25 27 27 25 18 19 17 12 10 16 16 19 17 18 20 21 21 23 23 24 24 24 23 23 20 19 17 16 15 14 9 7 7 7 9 9 9 10 10 10
30 24 28 27 29 27 28 26 22 20 20 16 22 15 20 18 17 17 21 22 24 23 24 24 25 24 25 23 22 19 19 17 16 15 12 13 11 11 10 10 10 9 12 11
29 24 21 28 27 28 25 22 23 20 18 18 20 19 15 25 23 22 22 24 22 24 25 26 26 26 26 24 22 20 19 18 16 16 16 13 13 11 9 10 10 10 9 11
29 20 24 19 26 23 21 22 20 23 19 20 24 20 15 14 18 23 23 22 22 24 24 25 25 24 23 23 22 21 20 18 18 17 19 15 15 14 12 11 10 9 10 11
27 32 23 21 23 24 23 20 14 18 20 17 25 24 18 15 19 19 20 23 22 22 25 24 25 23 23 23 22 20 21 21 20 19 18 19 16 16 14 11 11 10 10 10
22 26 33 22 28 24 26 25 16 22 19 18 24 25 22 24 20 12 21 21 24 24 22 24 25 25 24 24 24 23 23 21 21 21 20 18 18 13 14 14 12 12 11 9
25 31 31 32 26 27 24 29 25 24 23 18 20 22 26 21 24 20 12 19 23 24 24 25 26 25 25 23 23 23 22 22 22 23 19 19 18 18 16 17 14 12 10 10
29 19 31 28 26 29 30 21 25 18 24 19 20 15 16 21 16 18 24 17 20 22 25 23 24 25 23 25 24 24 23 23 23 23 21 19 20 20 17 15 16 15 14 12
32 24 17 27 29 26 26 24 29 21 19 17 12 11 14 14 19 21 19 23 20 21 24 23 22 24 25 23 23 23 23 24 23 22 21 21 20 20 18 17 16 16 13 13
35 12 23 29 27 26 28 30 27 19 23 18 14 8 10 5 8 15 20 18 23 20 21 22 24 23 23 25 25 25 24 24 23 22 21 21 19 20 20 19 18 17 17 15
4 16 17 26 27 27 31 28 27 26 21 21 17 10 13 7 0 10 13 16 15 18 20 21 22 22 20 22 21 22 23 26 25 22 22 20 21 20 20 20 19 18 17 17
10 17 24 19 21 22 29 31 30 27 20 18 19 17 13 11 8 5 2 5 9 13 11 11 17 19 21 19 18 19 21 25 24 24 23 21 22 21 20 19 19 19 18 18
8 16 19 25 19 7 26 29 31 31 22 26 15 21 15 16 10 10 12 8 4 4 3 5 10 11 10 14 15 18 20 18 21 22 22 22 20 19 19 19 19 18 18 17
8 13 19 23 21 7 14 19 33 27 27 23 23 16 15 11 8 5 6 6 5 8 12 9 11 12 13 14 13 14 18 19 17 18 20 18 18 18 19 18 19 18 19 19
12 10 9 15 17 12 19 19 15 19 26 24 21 18 14 7 6 4 3 6 6 7 7 9 9 9 12 15 12 14 14 16 17 18 16 18 18 18 18 18 18 19 19 18
13 10 10 11 18 23 11 18 16 13 14 13 13 11 9 8 9 10 11 12 12 13 12 12 10 9 11 13 15 14 14 14 16 16 18 18 19 18 17 18 18 17 16 18
13 11 7 11 12 8 17 12 14 14 18 17 15 13 12 10 9 12 12 12 14 15 13 12 13 13 13 9 14 10 14 15 16 18 19 19 18 18 18 20 18 16 16 16
14 12 12 9 14 14 7 14 4 7 8 6 10 16 17 12 12 10 6 10 15 13 12 12 11 13 14 9 12 10 13 13 17 20 19 17 17 18 19 18 17 15 15 16
13 12 14 14 10 11 5 13 3 13 6 17 10 9 6 4 10 15 15 15 14 14 15 15 12 12 12 13 13 12 11 15 19 15 16 16 17 18 17 15 14 15 15 15
8 14 12 13 17 20 10 7 5 10 7 11 12 12 9 11 12 13 15 16 17 18 17 15 14 14 14 10 10 11 11 15 10 13 15 16 17 15 14 15 14 15 14 15
9 7 8 9 9 11 13 11 9 8 7 10 11 13 14 14 14 15 15 16 17 19 17 15 15 13 12 8 10 10 14 10 11 13 13 14 14 15 13 15 14 13 14 14
11 14 13 14 15 18 19 15 12 14 13 12 15 15 16 18 19 17 16 16 18 18 18 15 13 14 12 8 9 10 9 9 11 12 13 12 13 13 13 12 13 13 13 13
16 19 17 19 21 22 22 20 20 19 18 19 14 16 18 20 20 20 17 17 19 18 15 12 10 8 10 8 8 11 11 11 12 12 12 12 12 13 12 5 3 11 5 5
16 19 17 17 20 18 17 17 20 22 22 22 16 20 20 22 22 23 16 16 18 15 12 11 11 8 7 6 5 8 8 9 10 11 10 11 11 12 12 12 7 16 12 13
Wind_Direction
200 205 213 213 216 228 241 206 238 206 186 202 205 201 188 185 186 189 175 188 189 192 188 186 192 187 189 187 188 191 195 188 188 199 198 211 208 201 216 223 211 194 216 222
190 220 218 220 213 222 237 246 214 237 147 216 200 217 210 206 187 199 182 189 193 190 185 190 189 190 192 192 188 188 195 190 197 197 210 210 214 208 212 211 200 216 216 214
208 212 219 212 218 215 225 233 232 230 210 204 245 241 233 207 192 187 207 183 195 191 189 188 190 197 193 193 191 190 191 194 193 215 197 206 220 241 203 216 209 204 217 212
222 225 196 215 218 214 221 224 236 232 238 214 203 241 208 225 195 192 199 190 188 195 191 187 193 196 197 195 191 190 189 195 195 198 211 203 207 211 219 209 217 209 197 218
210 215 200 211 214 217 228 211 224 244 251 250 239 220 241 195 209 191 203 204 197 187 191 191 192 193 199 195 194 193 187 192 198 193 220 198 215 214 211 223 211 201 194 206
229 209 222 218 215 216 220 232 227 218 235 238 234 239 225 225 211 196 192 210 197 188 195 193 188 192 198 196 195 191 186 193 197 194 197 224 203 227 213 210 217 213 209 198
213 227 211 228 208 207 214 208 209 216 216 231 224 233 234 237 225 209 201 195 198 201 185 194 191 189 191 197 195 195 187 193 196 203 199 209 218 201 230 218 214 223 218 209
212 211 219 195 218 204 206 215 222 213 215 225 229 231 223 235 251 247 202 202 193 194 194 193 195 188 188 193 191 195 188 192 195 199 206 201 212 213 210 216 230 210 237 214
204 225 192 218 209 217 193 218 223 241 215 238 213 217 233 237 221 205 230 203 195 189 194 190 191 197 191 191 194 194 194 191 194 200 202 204 201 213 212 213 210 236 237 232
244 227 225 195 209 215 231 202 213 230 244 235 230 243 206 200 228 212 210 206 219 181 191 193 195 193 197 193 194 195 197 193 197 197 199 202 203 206 216 212 216 212 222 229
239 249 243 206 202 199 205 225 210 229 232 242 236 221 221 217 196 213 221 210 201 201 188 196 194 195 198 199 195 196 198 201 197 201 203 203 204 205 207 219 211 215 214 215
216 241 237 211 197 213 211 217 202 224 218 240 256 225 69 93 205 193 209 215 208 198 199 191 192 201 197 198 202 199 202 203 205 203 205 205 206 205 206 211 215 212 214 208
320 224 225 238 188 195 219 213 222 207 234 214 227 192 135 119 151 196 190 206 206 208 206 194 194 188 200 199 202 204 197 207 208 204 206 210 207 207 208 208 210 212 210 213
292 258 230 217 199 195 207 220 213 223 213 224 207 235 108 139 129 118 209 155 175 201 218 212 198 194 190 199 197 205 207 206 205 204 208 209 209 209 208 207 208 209 210 210
276 250 245 256 260 259 205 214 215 219 224 223 206 201 175 172 151 125 147 158 150 157 212 227 260 250 215 189 200 198 207 211 208 202 204 208 206 208 208 206 208 207 209 210
299 268 255 252 256 233 264 243 216 222 218 232 231 243 192 190 188 181 191 202 239 201 181 190 199 236 218 217 210 203 200 212 203 211 207 203 205 207 210 208 207 206 207 209
302 270 243 238 241 242 241 234 242 238 216 226 223 226 242 222 177 189 236 290 283 254 245 251 250 219 218 218 204 211 207 202 214 206 205 205 201 207 209 211 210 209 209 209
266 285 278 252 229 224 240 204 227 248 256 261 263 263 250 251 277 270 257 259 264 268 271 273 269 231 204 213 204 197 204 201 210 210 214 204 203 204 204 210 213 211 209 213
228 259 265 250 244 211 228 234 237 204 225 226 233 237 243 251 259 260 274 275 272 271 274 269 261 250 253 240 196 189 191 195 204 212 209 213 202 202 202 210 210 209 212 216
209 212 259 257 249 222 205 56 85 53 216 168 228 230 229 225 229 233 290 325 337 328 325 331 290 275 271 263 255 234 198 201 205 209 210 206 207 203 206 207 205 206 211 218
193 212 223 233 258 242 5 63 327 189 67 19 28 25 12 291 345 339 329 328 324 308 302 302 301 297 292 287 278 266 223 198 218 206 205 204 206 207 207 206 205 204 208 219
246 195 217 229 238 239 292 56 254 57 22 13 354 352 344 321 313 313 316 317 319 310 299 284 274 271 273 263 256 238 230 220 199 205 202 199 201 204 201 204 202 205 206 212
237 267 275 259 231 247 302 316 339 4 328 334 327 307 303 299 300 308 311 315 313 308 297 287 275 270 280 272 251 234 233 222 206 201 205 199 196 197 211 192 201 203 206 219
257 280 275 279 266 278 289 298 293 293 300 294 299 313 312 311 315 314 310 319 316 303 293 286 277 255 258 264 245 236 249 214 209 205 201 199 194 192 196 195 197 210 210 211
296 308 290 269 256 267 272 280 286 282 289 284 298 293 301 301 299 306 313 318 305 297 293 281 282 286 257 253 247 241 227 223 206 204 201 195 196 190 189 190 326 215 196 269
274 278 272 273 275 278 270 276 270 257 259 269 291 293 293 298 297 299 309 314 293 304 304 295 276 277 268 241 261 249 221 208 202 194 195 193 198 177 196 162 130 49 61 57